SCP
0 0 0 -0 0 0 0 0 0 0 0 0 0 0 0 -0 0 -0 -0 -0 -0 -0 -0 0 0 0 0 0 0 0 0 0
0 0 0 0 0 0 0 0 0 0 0 0 -0 0 0 -0 -0 -0 -0 -0 -0 -0 -0 0 0 0 0 0 0 0 0 0
0 0 0 0 0 0 0 0 0 0 0 0 0 0 0 0 0 -0 -0 -0 -0 -0 0 0 0 0 0 0 0 0 0 0
0 0 -0 0 0 0 0 0 0 0 0 0 0 0 0 0 0 -0 -0 0 -0 0 0 0 0 0 0 0 0 0 0 0
0 0 0 0 0 0 0 0 0 0 0 0 0 0 0 0 0 0 0 0 0 0 0 0 0 1 1 1 1 1 1 1
0 0 0 0 0 0 0 0 0 0 0 0 0 0 0 0 0 0 0 0 0 0 0 0 0 1 1 1 1 1 1 1
0 0 0 0 0 0 0 0 0 0 0 0 0 0 0 0 0 0 0 0 0 0 0 0 0 0 1 1 1 1 1 1
0 0 0 0 0 0 0 0 0 0 0 0 0 0 0 0 0 0 0 0 0 0 0 0 0 0 1 0 0 0 0 0
0 0 0 0 0 0 0 0 0 0 0 0 0 0 0 0 0 0 0 0 0 1 1 0 0 0 0 1 0 1 1 1
0 0 0 0 0 0 0 0 0 0 0 0 0 0 0 0 0 0 0 0 0 0 1 1 0 0 0 0 1 1 1 2
0 0 0 0 0 0 0 0 0 0 0 0 0 0 0 0 0 0 0 0 0 1 1 2 1 0 1 1 1 1 2 3
0 0 0 0 0 0 0 0 0 0 0 0 0 0 0 0 0 0 0 0 0 0 4 2 2 1 2 3 1 2 1 3
0 0 0 0 0 0 0 0 0 0 0 0 0 0 0 0 0 0 0 0 0 0 3 4 2 2 2 2 2 1 2 3
0 0 0 0 0 0 0 0 0 0 0 0 0 0 0 0 0 0 0 0 0 0 0 2 2 1 1 1 2 2 2 2
0 0 0 0 0 0 0 0 0 0 0 0 0 0 0 0 0 0 0 0 0 1 0 1 1 1 1 2 3 2 1 1
0 0 0 0 0 0 0 0 0 0 0 0 0 0 0 0 0 0 0 1 2 1 2 2 1 3 1 1 3 2 2 2
0 0 0 0 0 0 0 0 0 0 0 0 0 0 0 0 0 0 0 1 1 1 3 2 1 1 1 2 3 3 2 3
0 0 0 0 0 0 0 0 0 0 0 0 0 0 0 0 0 0 1 1 1 2 2 4 2 3 3 5 2 2 2 2
0 0 0 0 0 0 0 0 0 0 0 0 0 0 0 0 0 0 0 0 0 1 2 4 4 4 7 7 6 3 2 2
0 0 0 0 0 0 0 0 0 0 0 0 0 0 0 0 0 0 0 0 1 1 3 5 6 3 8 2 2 1 2 1
Wind_Speed_500mb
17 29 32 32 23 20 26 9 13 11 9 20 11 15 1 30 44 42 40 40 39 39 41 40 41 40 38 37 35 31 27 24
25 40 39 42 18 14 21 20 24 22 16 17 25 10 19 39 43 41 39 38 37 40 40 40 41 41 39 37 36 33 31 29
33 43 44 32 31 8 24 26 25 19 26 21 29 17 13 42 43 39 38 36 38 42 40 39 38 39 38 39 38 38 35 33
32 44 41 35 31 25 31 33 27 26 24 29 20 20 25 41 43 36 36 36 37 41 42 41 38 37 37 38 40 39 37 37
42 42 30 28 23 34 35 40 40 37 26 45 15 24 28 43 42 36 36 37 39 39 43 42 40 39 38 38 42 43 40 40
39 35 44 26 38 35 40 37 33 9 17 29 25 17 32 43 42 37 36 36 35 34 42 44 45 44 42 43 47 45 44 46
45 40 37 30 33 45 33 29 31 28 26 9 6 23 35 44 45 40 35 34 33 32 33 39 42 41 44 46 49 51 51 54
40 36 25 28 39 50 38 32 41 28 21 6 10 27 38 44 45 43 39 35 33 33 32 32 33 37 43 46 54 60 61 64
44 42 32 38 41 48 46 36 42 41 35 26 13 19 30 46 46 45 39 33 32 40 45 41 33 36 37 35 41 50 58 65
62 66 38 37 43 49 57 50 45 38 34 29 16 19 26 34 42 43 44 42 37 35 44 39 36 36 33 33 36 39 44 52
68 61 62 50 54 50 58 56 55 53 42 38 39 34 27 27 29 29 33 36 38 35 43 24 24 32 35 38 40 41 42 49
73 69 66 49 59 57 69 58 60 60 57 54 51 46 38 36 33 33 33 30 29 32 43 35 28 33 38 44 42 43 42 46
56 70 66 64 52 65 74 68 68 59 57 59 61 55 46 40 37 35 36 30 29 27 34 37 37 40 49 51 42 43 47 53
68 60 62 52 67 77 80 71 67 69 66 63 62 60 52 45 41 41 37 34 31 30 29 28 39 47 48 41 44 43 44 45
61 61 61 58 71 66 89 68 67 68 70 70 71 69 60 49 41 39 36 36 38 34 38 37 40 45 48 48 46 40 40 41
63 58 55 61 71 64 76 69 70 74 71 64 70 74 63 50 47 43 41 42 46 47 46 55 52 51 49 38 41 38 41 41
61 50 57 61 64 71 60 67 66 67 64 71 70 62 65 48 44 44 44 51 60 54 49 53 55 51 38 38 39 37 39 41
59 62 54 51 61 67 57 58 71 76 73 60 55 58 53 54 54 51 55 57 55 55 46 45 46 54 43 38 35 34 36 40
57 52 55 62 55 66 64 61 68 79 88 88 84 82 71 63 56 53 54 55 55 48 42 37 38 39 42 30 33 36 38 38
49 47 45 56 46 56 54 57 58 65 75 84 77 61 62 68 69 61 60 54 54 50 51 49 48 38 40 32 35 37 38 32
Wind_Direction_500mb
226 236 247 262 202 217 195 216 225 239 250 223 253 257 97 163 149 157 174 181 181 189 199 199 197 193 195 198 198 195 195 195
260 248 233 259 309 308 225 179 228 219 221 218 210 183 185 155 158 166 175 186 189 202 205 205 203 201 201 204 204 203 203 205
241 244 266 273 274 292 248 209 212 207 223 206 193 212 156 165 165 168 175 183 198 205 213 215 212 209 209 211 212 210 210 212
246 246 241 245 257 242 255 256 240 235 235 231 175 192 197 177 171 173 175 182 208 205 215 219 223 219 219 219 221 221 219 222
264 271 269 267 250 249 240 235 234 239 251 226 187 198 187 180 176 177 181 181 213 206 216 221 227 230 230 230 230 228 230 231
253 263 268 270 261 263 257 248 250 250 242 245 153 153 182 184 182 183 187 190 194 217 219 223 228 230 232 237 238 236 239 238
251 250 261 272 279 267 250 256 248 242 248 356 238 183 188 190 189 193 196 198 198 207 226 228 232 243 244 243 243 245 244 241
259 267 275 255 262 261 253 219 239 212 220 207 177 189 193 193 196 201 205 206 210 205 207 218 214 237 254 249 248 247 247 245
249 257 279 262 269 270 265 246 234 221 208 199 171 192 205 202 208 209 215 212 216 234 221 219 219 232 245 256 253 254 251 246
256 266 257 257 269 268 271 263 243 231 216 201 206 229 209 212 213 222 220 220 220 232 249 244 230 239 241 235 241 245 253 253
249 259 259 259 257 260 258 257 259 252 246 226 242 236 231 233 233 233 228 231 233 227 254 247 239 233 260 251 242 238 236 246
251 245 253 248 258 262 255 256 256 253 247 245 242 235 237 224 230 236 236 233 236 231 234 239 256 268 271 272 247 242 235 234
258 246 243 245 257 251 249 251 255 254 246 246 242 240 239 240 240 240 238 236 233 224 223 247 260 269 278 272 255 240 234 229
245 246 244 237 247 251 252 248 245 251 248 244 239 236 242 240 243 240 237 234 229 224 225 245 270 279 271 260 258 244 229 229
253 241 241 236 245 251 254 247 254 243 247 244 243 240 240 240 239 235 233 232 236 235 247 256 274 272 275 274 250 238 235 225
255 259 235 238 239 244 251 255 246 254 249 245 240 237 235 231 230 235 235 238 241 237 256 267 268 268 269 263 245 232 228 220
272 265 244 256 241 244 238 237 254 256 241 231 241 245 240 236 238 234 237 240 244 256 262 262 258 258 246 242 231 226 221 214
271 266 274 271 254 254 245 234 234 247 251 242 243 244 241 236 240 243 245 248 255 258 255 257 255 249 237 239 227 224 211 211
278 280 259 260 257 260 258 249 233 239 244 247 248 246 245 247 243 243 247 249 247 248 246 247 254 240 242 225 207 207 203 205
272 270 259 248 256 251 245 250 244 238 241 245 242 247 249 251 252 251 248 245 244 242 246 249 247 225 228 213 209 210 201 198
Wind_Speed_850mb
17 29 32 32 23 20 26 9 13 11 9 20 11 15 1 30 44 42 40 40 39 39 41 40 41 40 38 37 35 31 27 24
25 40 39 42 18 14 21 20 24 22 16 17 25 10 19 39 43 41 39 38 37 40 40 40 41 41 39 37 36 33 31 29
33 43 44 32 31 8 24 26 25 19 26 21 29 17 13 42 43 39 38 36 38 42 40 39 38 39 38 39 38 38 35 33
32 44 41 35 31 25 31 33 27 26 24 29 20 20 25 41 43 36 36 36 37 41 42 41 38 37 37 38 40 39 37 37
42 42 30 28 23 34 35 40 40 37 26 45 15 24 28 43 42 36 36 37 39 39 43 42 40 39 38 38 42 43 40 40
39 35 44 26 38 35 40 37 33 9 17 29 25 17 32 43 42 37 36 36 35 34 42 44 45 44 42 43 47 45 44 46
45 40 37 30 33 45 33 29 31 28 26 9 6 23 35 44 45 40 35 34 33 32 33 39 42 41 44 46 49 51 51 54
40 36 25 28 39 50 38 32 41 28 21 6 10 27 38 44 45 43 39 35 33 33 32 32 33 37 43 46 54 60 61 64
44 42 32 38 41 48 46 36 42 41 35 26 13 19 30 46 46 45 39 33 32 40 45 41 33 36 37 35 41 50 58 65
62 66 38 37 43 49 57 50 45 38 34 29 16 19 26 34 42 43 44 42 37 35 44 39 36 36 33 33 36 39 44 52
68 61 62 50 54 50 58 56 55 53 42 38 39 34 27 27 29 29 33 36 38 35 43 24 24 32 35 38 40 41 42 49
73 69 66 49 59 57 69 58 60 60 57 54 51 46 38 36 33 33 33 30 29 32 43 35 28 33 38 44 42 43 42 46
56 70 66 64 52 65 74 68 68 59 57 59 61 55 46 40 37 35 36 30 29 27 34 37 37 40 49 51 42 43 47 53
68 60 62 52 67 77 80 71 67 69 66 63 62 60 52 45 41 41 37 34 31 30 29 28 39 47 48 41 44 43 44 45
61 61 61 58 71 66 89 68 67 68 70 70 71 69 60 49 41 39 36 36 38 34 38 37 40 45 48 48 46 40 40 41
63 58 55 61 71 64 76 69 70 74 71 64 70 74 63 50 47 43 41 42 46 47 46 55 52 51 49 38 41 38 41 41
61 50 57 61 64 71 60 67 66 67 64 71 70 62 65 48 44 44 44 51 60 54 49 53 55 51 38 38 39 37 39 41
59 62 54 51 61 67 57 58 71 76 73 60 55 58 53 54 54 51 55 57 55 55 46 45 46 54 43 38 35 34 36 40
57 52 55 62 55 66 64 61 68 79 88 88 84 82 71 63 56 53 54 55 55 48 42 37 38 39 42 30 33 36 38 38
49 47 45 56 46 56 54 57 58 65 75 84 77 61 62 68 69 61 60 54 54 50 51 49 48 38 40 32 35 37 38 32
Wind_Direction_850mb
226 236 247 262 202 217 195 216 225 239 250 223 253 257 97 163 149 157 174 181 181 189 199 199 197 193 195 198 198 195 195 195
260 248 233 259 309 308 225 179 228 219 221 218 210 183 185 155 158 166 175 186 189 202 205 205 203 201 201 204 204 203 203 205
241 244 266 273 274 292 248 209 212 207 223 206 193 212 156 165 165 168 175 183 198 205 213 215 212 209 209 211 212 210 210 212
246 246 241 245 257 242 255 256 240 235 235 231 175 192 197 177 171 173 175 182 208 205 215 219 223 219 219 219 221 221 219 222
264 271 269 267 250 249 240 235 234 239 251 226 187 198 187 180 176 177 181 181 213 206 216 221 227 230 230 230 230 228 230 231
253 263 268 270 261 263 257 248 250 250 242 245 153 153 182 184 182 183 187 190 194 217 219 223 228 230 232 237 238 236 239 238
251 250 261 272 279 267 250 256 248 242 248 356 238 183 188 190 189 193 196 198 198 207 226 228 232 243 244 243 243 245 244 241
259 267 275 255 262 261 253 219 239 212 220 207 177 189 193 193 196 201 205 206 210 205 207 218 214 237 254 249 248 247 247 245
249 257 279 262 269 270 265 246 234 221 208 199 171 192 205 202 208 209 215 212 216 234 221 219 219 232 245 256 253 254 251 246
256 266 257 257 269 268 271 263 243 231 216 201 206 229 209 212 213 222 220 220 220 232 249 244 230 239 241 235 241 245 253 253
249 259 259 259 257 260 258 257 259 252 246 226 242 236 231 233 233 233 228 231 233 227 254 247 239 233 260 251 242 238 236 246
251 245 253 248 258 262 255 256 256 253 247 245 242 235 237 224 230 236 236 233 236 231 234 239 256 268 271 272 247 242 235 234
258 246 243 245 257 251 249 251 255 254 246 246 242 240 239 240 240 240 238 236 233 224 223 247 260 269 278 272 255 240 234 229
245 246 244 237 247 251 252 248 245 251 248 244 239 236 242 240 243 240 237 234 229 224 225 245 270 279 271 260 258 244 229 229
253 241 241 236 245 251 254 247 254 243 247 244 243 240 240 240 239 235 233 232 236 235 247 256 274 272 275 274 250 238 235 225
255 259 235 238 239 244 251 255 246 254 249 245 240 237 235 231 230 235 235 238 241 237 256 267 268 268 269 263 245 232 228 220
272 265 244 256 241 244 238 237 254 256 241 231 241 245 240 236 238 234 237 240 244 256 262 262 258 258 246 242 231 226 221 214
271 266 274 271 254 254 245 234 234 247 251 242 243 244 241 236 240 243 245 248 255 258 255 257 255 249 237 239 227 224 211 211
278 280 259 260 257 260 258 249 233 239 244 247 248 246 245 247 243 243 247 249 247 248 246 247 254 240 242 225 207 207 203 205
272 270 259 248 256 251 245 250 244 238 241 245 242 247 249 251 252 251 248 245 244 242 246 249 247 225 228 213 209 210 201 198